TimeEST,TemperatureF,Dew PointF,Humidity,Sea Level PressureIn,VisibilityMPH,Wind Direction,Wind SpeedMPH,Gust SpeedMPH,PrecipitationIn,Events,Conditions,WindDirDegrees,DateUTC
12:05 AM,28.4,26.6,93,29.87,1.2,Calm,Calm,-,0.01,Snow,Light Snow,0,2012-12-29 05:05:00
12:31 AM,28.4,26.6,93,29.86,1.2,Calm,Calm,-,0.02,Snow,Light Snow,0,2012-12-29 05:31:00
12:54 AM,28.9,27.0,92,29.86,1.5,NNE,3.5,-,0.02,Snow,Light Snow,20,2012-12-29 05:54:00
1:54 AM,28.0,27.0,96,29.85,1.8,North,3.5,-,0.03,Snow,Light Snow,350,2012-12-29 06:54:00
2:04 AM,28.4,26.6,93,29.83,2.0,Calm,Calm,-,0.00,Snow,Light Snow,0,2012-12-29 07:04:00
2:19 AM,28.4,26.6,93,29.83,3.0,North,3.5,-,0.00,,Overcast,360,2012-12-29 07:19:00
2:54 AM,28.0,27.0,96,29.85,4.0,NNW,3.5,-,0.00,,Overcast,340,2012-12-29 07:54:00
3:49 AM,28.4,26.6,93,29.84,5.0,NNW,5.8,-,N/A,,Overcast,340,2012-12-29 08:49:00
3:54 AM,28.0,26.1,92,29.86,5.0,NNW,5.8,-,N/A,,Overcast,330,2012-12-29 08:54:00
4:23 AM,28.4,26.6,93,29.84,5.0,NNW,6.9,-,N/A,,Overcast,340,2012-12-29 09:23:00
4:54 AM,28.0,26.1,92,29.86,5.0,NNW,6.9,-,N/A,,Overcast,330,2012-12-29 09:54:00
5:54 AM,28.0,26.1,92,29.87,4.0,NW,8.1,-,N/A,,Overcast,320,2012-12-29 10:54:00
6:04 AM,28.4,26.6,93,29.85,4.0,NNW,9.2,-,N/A,,Overcast,330,2012-12-29 11:04:00
6:43 AM,28.4,26.6,93,29.86,4.0,NNW,6.9,-,N/A,,Overcast,330,2012-12-29 11:43:00
6:54 AM,28.9,26.1,89,29.88,4.0,NNW,5.8,-,N/A,,Overcast,340,2012-12-29 11:54:00
7:36 AM,28.4,26.6,93,29.87,4.0,NNW,5.8,-,N/A,,Overcast,330,2012-12-29 12:36:00
7:54 AM,28.0,26.1,92,29.90,4.0,NW,5.8,-,N/A,,Overcast,320,2012-12-29 12:54:00
8:18 AM,28.4,26.6,93,29.88,4.0,NW,4.6,-,N/A,,Overcast,310,2012-12-29 13:18:00
8:24 AM,28.4,26.6,93,29.88,2.0,NW,4.6,-,N/A,,Overcast,310,2012-12-29 13:24:00
8:54 AM,28.9,27.0,92,29.91,2.0,NW,5.8,-,N/A,,Overcast,320,2012-12-29 13:54:00
9:01 AM,28.4,26.6,93,29.89,3.0,NW,5.8,-,N/A,,Overcast,310,2012-12-29 14:01:00
9:36 AM,30.2,28.4,93,29.90,2.5,WNW,6.9,-,0.00,Snow,Light Snow,300,2012-12-29 14:36:00
9:54 AM,30.0,28.0,92,29.92,2.0,WNW,6.9,-,0.00,Snow,Light Snow,300,2012-12-29 14:54:00
10:40 AM,30.2,28.4,93,29.92,3.0,WNW,15.0,19.6,0.00,Snow,Light Snow,300,2012-12-29 15:40:00
10:54 AM,30.9,28.0,89,29.95,3.0,WNW,11.5,-,0.00,Snow,Light Snow,290,2012-12-29 15:54:00
11:33 AM,30.2,26.6,86,29.94,2.5,WNW,16.1,-,0.00,Snow,Light Snow,300,2012-12-29 16:33:00
11:43 AM,30.2,26.6,86,29.94,2.5,WNW,15.0,23.0,0.00,Snow,Light Snow,300,2012-12-29 16:43:00
11:54 AM,28.9,25.0,85,29.97,2.5,WNW,15.0,-,0.00,Snow,Light Snow,300,2012-12-29 16:54:00
12:15 PM,28.4,24.8,86,29.95,3.0,WNW,13.8,24.2,0.00,Snow,Light Snow,300,2012-12-29 17:15:00
12:52 PM,26.6,23.0,86,29.95,2.5,WNW,18.4,26.5,0.00,Snow,Light Snow,300,2012-12-29 17:52:00
12:54 PM,26.1,21.9,84,29.97,2.5,WNW,17.3,26.5,0.00,Snow,Light Snow,300,2012-12-29 17:54:00
1:54 PM,26.1,21.9,84,29.99,2.5,WNW,16.1,25.3,0.00,Snow,Light Snow,300,2012-12-29 18:54:00
2:01 PM,26.6,21.2,80,29.97,3.0,WNW,17.3,31.1,N/A,,Haze,300,2012-12-29 19:01:00
2:54 PM,26.1,21.0,81,30.01,3.0,WNW,15.0,-,N/A,,Haze,300,2012-12-29 19:54:00
3:54 PM,25.0,19.0,78,30.05,10.0,WNW,15.0,23.0,N/A,,Overcast,300,2012-12-29 20:54:00
4:54 PM,26.1,19.0,75,30.07,10.0,WNW,12.7,-,N/A,,Overcast,290,2012-12-29 21:54:00
5:54 PM,26.1,19.9,78,30.10,10.0,WNW,9.2,19.6,N/A,,Overcast,290,2012-12-29 22:54:00
6:54 PM,25.0,19.9,81,30.13,10.0,WNW,12.7,-,N/A,,Overcast,290,2012-12-29 23:54:00
7:54 PM,25.0,19.0,78,30.16,10.0,WNW,15.0,-,N/A,,Overcast,290,2012-12-30 00:54:00
8:54 PM,24.1,18.0,77,30.19,10.0,WNW,12.7,23.0,N/A,,Overcast,300,2012-12-30 01:54:00
9:54 PM,21.9,17.1,82,30.22,10.0,WNW,13.8,-,N/A,,Overcast,290,2012-12-30 02:54:00
10:54 PM,21.9,16.0,78,30.25,10.0,WNW,12.7,-,N/A,,Overcast,300,2012-12-30 03:54:00
11:47 PM,21.2,15.8,80,30.25,10.0,West,13.8,-,N/A,,Overcast,280,2012-12-30 04:47:00
11:54 PM,21.0,16.0,81,30.27,10.0,West,12.7,-,N/A,,Overcast,280,2012-12-30 04:54:00